Le nostre stazioni meteo in Italia

Pubblicità
Il mio iltempo24.it
Panocchia, Italia (16131): Temperatura: 09.09.2019 21:00:00 - 15.09.2019 21:00:00 (CEST)Panocchia, Italia (16131): velocità del vento: 09.09.2019 21:00:00 - 15.09.2019 21:00:00 (CEST)Panocchia, Italia (16131): direzione del vento: 09.09.2019 21:00:00 - 15.09.2019 21:00:00 (CEST)Panocchia, Italia (16131): reduced air pressure: 09.09.2019 21:00:00 - 15.09.2019 21:00:00 (CEST)Panocchia, Italia (16131): precipitazioni: 09.09.2019 21:00:00 - 15.09.2019 21:00:00 (CEST)
Data & Tempo tt [°C] ff [km/h] ff [kn] dd ppp [hPa] rr [mm]
15.09.2019 21:00:00 - - - - - -
15.09.2019 20:00:00 24,7 4 2 SSO 1021,1 0,0
15.09.2019 19:00:00 28,2 7 4 E 1020,9 0,0
15.09.2019 18:00:00 30,9 6 4 E 1021,0 0,0
15.09.2019 17:00:00 30,5 8 5 ENE 1021,5 0,0
15.09.2019 16:00:00 30,7 6 3 E 1022,0 0,0
15.09.2019 15:00:00 30,3 7 4 SE 1022,7 0,0
15.09.2019 14:00:00 32,4 6 3 ENE 1023,5 0,0
15.09.2019 13:00:00 30,3 6 3 ENE 1024,2 0,0
15.09.2019 12:00:00 30,6 6 4 ENE 1025,1 0,0
15.09.2019 11:00:00 28,4 3 2 NE 1025,5 0,0
15.09.2019 10:00:00 24,0 6 3 SO 1025,9 0,0
15.09.2019 09:00:00 22,1 10 5 SO 1025,9 0,0
15.09.2019 08:00:00 20,9 5 3 OSO 1025,8 0,0
15.09.2019 07:00:00 20,1 10 5 SO 1025,7 0,0
15.09.2019 06:00:00 20,1 13 7 OSO 1025,6 0,0
15.09.2019 05:00:00 20,0 15 8 OSO 1025,5 0,0
15.09.2019 04:00:00 20,0 12 7 OSO 1025,9 0,0
15.09.2019 03:00:00 21,2 16 8 SO 1026,0 0,0
15.09.2019 02:00:00 21,3 15 8 OSO 1026,1 0,0
15.09.2019 01:00:00 22,1 - - - 1025,9 0,0
15.09.2019 00:00:00 22,2 17 9 OSO 1026,4 0,0
14.09.2019 23:00:00 22,9 16 8 OSO 1026,6 0,0
14.09.2019 22:00:00 22,6 14 7 SO 1026,7 0,0
14.09.2019 21:00:00 22,8 12 7 OSO 1026,5 0,0
14.09.2019 20:00:00 24,5 5 3 SSO 1025,6 0,0
14.09.2019 19:00:00 27,7 9 5 E 1025,3 0,0
14.09.2019 18:00:00 32,2 17 9 E 1025,1 0,0
14.09.2019 17:00:00 31,9 16 8 E 1025,3 0,0
14.09.2019 16:00:00 31,8 14 8 E 1025,9 0,0
14.09.2019 15:00:00 31,5 11 6 E 1026,7 0,0
14.09.2019 14:00:00 31,4 10 6 E 1027,2 0,0
14.09.2019 13:00:00 29,8 10 5 E 1027,7 0,0
14.09.2019 12:00:00 28,7 8 4 ENE 1028,5 0,0
14.09.2019 11:00:00 27,7 5 3 NNE 1028,6 0,0
14.09.2019 10:00:00 27,0 5 3 N 1028,6 0,0
14.09.2019 09:00:00 23,8 5 3 SO 1028,7 0,0
14.09.2019 08:00:00 20,5 4 2 SSO 1028,6 0,0
14.09.2019 07:00:00 18,7 18 10 OSO 1027,9 0,0
14.09.2019 06:00:00 18,6 13 7 OSO 1028,0 0,0
14.09.2019 05:00:00 18,9 14 8 OSO 1027,8 0,0
14.09.2019 04:00:00 19,0 17 9 OSO 1027,8 0,0
14.09.2019 03:00:00 20,1 21 11 OSO 1028,0 0,0
14.09.2019 02:00:00 20,3 20 11 OSO 1028,3 0,0
14.09.2019 01:00:00 20,5 17 9 OSO 1028,3 0,0
14.09.2019 00:00:00 21,4 19 11 OSO 1028,3 0,0
13.09.2019 23:00:00 21,6 18 10 OSO 1028,5 0,0
13.09.2019 22:00:00 21,7 18 10 OSO 1028,2 0,0
13.09.2019 21:00:00 21,9 14 7 OSO 1027,9 0,0
13.09.2019 20:00:00 24,9 - - - 1027,5 0,0
13.09.2019 19:00:00 28,2 7 4 E 1026,9 0,0
13.09.2019 18:00:00 30,9 12 7 E 1026,8 0,0
13.09.2019 17:00:00 31,5 10 6 ENE 1026,9 0,0
13.09.2019 16:00:00 31,0 10 5 E 1027,6 0,0
13.09.2019 15:00:00 31,1 12 7 E 1028,1 0,0
13.09.2019 14:00:00 29,9 13 7 E 1028,6 0,0
13.09.2019 13:00:00 28,9 13 7 E 1029,0 0,0
13.09.2019 12:00:00 28,4 10 5 E 1029,7 0,0
13.09.2019 11:00:00 26,2 7 4 ENE 1030,4 0,0
13.09.2019 10:00:00 25,6 6 3 E 1030,5 0,0
13.09.2019 09:00:00 22,8 5 3 SO 1030,2 0,0
13.09.2019 08:00:00 19,2 11 6 SO 1030,3 0,0
13.09.2019 07:00:00 17,5 5 3 O 1030,3 0,0
13.09.2019 06:00:00 17,6 14 7 OSO 1029,7 0,0
13.09.2019 05:00:00 18,2 - - - 1029,3 0,0
13.09.2019 04:00:00 18,6 19 10 OSO 1029,2 0,0
13.09.2019 03:00:00 18,7 20 11 OSO 1028,9 0,0
13.09.2019 02:00:00 19,2 21 12 OSO 1028,9 0,0
13.09.2019 01:00:00 19,6 20 11 SO 1028,8 0,0
13.09.2019 00:00:00 19,7 16 9 OSO 1028,8 0,0
12.09.2019 23:00:00 20,1 17 9 SO 1028,9 0,0
12.09.2019 22:00:00 20,8 18 10 OSO 1028,9 0,0
12.09.2019 21:00:00 20,6 14 8 OSO 1028,6 0,0
12.09.2019 20:00:00 24,6 2 1 S 1027,9 0,0
12.09.2019 19:00:00 28,1 8 4 E 1027,4 0,0
12.09.2019 18:00:00 30,5 9 5 E 1027,1 0,0
12.09.2019 17:00:00 30,5 9 5 ENE 1027,3 0,0
12.09.2019 16:00:00 30,1 9 5 E 1027,5 0,0
12.09.2019 15:00:00 30,5 11 6 E 1027,8 0,0
12.09.2019 14:00:00 29,9 9 5 E 1028,2 0,0
12.09.2019 13:00:00 29,0 8 4 NNE 1028,5 0,0
12.09.2019 12:00:00 28,5 6 3 NE 1028,3 0,0
12.09.2019 11:00:00 27,9 10 6 NE 1028,2 0,0
12.09.2019 10:00:00 25,3 13 7 SO 1027,6 0,0
12.09.2019 09:00:00 22,2 13 7 OSO 1027,5 0,0
12.09.2019 08:00:00 19,2 9 5 O 1027,1 0,0
12.09.2019 07:00:00 16,5 16 9 OSO 1026,5 0,0
12.09.2019 06:00:00 16,6 16 9 OSO 1025,8 0,0
12.09.2019 05:00:00 17,2 16 9 OSO 1025,2 0,0
12.09.2019 04:00:00 17,4 18 10 OSO 1024,9 0,0
12.09.2019 03:00:00 17,2 16 8 OSO 1024,7 0,0
12.09.2019 02:00:00 17,8 18 10 OSO 1024,5 0,0
12.09.2019 01:00:00 17,9 16 9 OSO 1024,3 0,0
12.09.2019 00:00:00 18,5 - - - 1024,1 -
11.09.2019 23:00:00 19,2 13 7 OSO 1023,8 0,0
11.09.2019 22:00:00 19,9 15 8 OSO 1023,1 0,0
11.09.2019 21:00:00 19,9 - - - 1022,5 -
11.09.2019 20:00:00 23,2 4 2 SSO 1021,4 0,0
11.09.2019 19:00:00 25,9 7 4 E 1020,7 0,0
11.09.2019 18:00:00 29,0 5 3 E 1020,3 0,0
11.09.2019 17:00:00 29,4 7 4 ENE 1020,1 0,0
11.09.2019 16:00:00 28,9 7 4 ENE 1020,1 0,0
11.09.2019 15:00:00 28,4 6 4 NE 1020,4 0,0
11.09.2019 14:00:00 28,3 4 2 SSE 1020,8 0,0
11.09.2019 13:00:00 27,9 3 1 ONO 1021,0 0,0
11.09.2019 12:00:00 27,7 6 3 NO 1021,3 0,0
11.09.2019 11:00:00 25,5 9 5 N 1021,9 0,0
11.09.2019 10:00:00 24,6 14 8 NNO 1021,4 0,0
11.09.2019 09:00:00 21,9 6 3 N 1021,0 0,0
11.09.2019 08:00:00 20,0 6 3 OSO 1020,6 0,0
11.09.2019 07:00:00 16,0 8 5 SO 1020,7 0,0
11.09.2019 06:00:00 15,9 9 5 OSO 1020,4 0,0
11.09.2019 05:00:00 17,8 6 3 SO 1020,2 0,0
11.09.2019 04:00:00 17,4 5 3 OSO 1020,0 0,0
11.09.2019 03:00:00 17,7 5 3 O 1020,0 0,0
11.09.2019 02:00:00 18,3 6 4 NO 1019,9 0,0
11.09.2019 01:00:00 17,8 3 2 NO 1020,0 0,0
11.09.2019 00:00:00 17,7 5 3 OSO 1019,6 0,0
10.09.2019 23:00:00 18,6 9 5 NNO 1019,3 0,0
10.09.2019 22:00:00 19,3 9 5 NO 1018,9 0,0
10.09.2019 21:00:00 19,0 6 3 NO 1018,4 0,0
10.09.2019 20:00:00 20,9 4 2 E 1017,3 0,0
10.09.2019 19:00:00 21,9 5 3 ENE 1016,4 0,0
10.09.2019 18:00:00 23,8 4 2 SSO 1015,9 0,0
10.09.2019 17:00:00 24,7 10 5 E 1015,6 0,0
10.09.2019 16:00:00 27,6 9 5 E 1015,1 0,0
10.09.2019 15:00:00 27,3 11 6 ENE 1015,4 0,0
10.09.2019 14:00:00 25,4 10 5 E 1015,7 0,0
10.09.2019 13:00:00 25,5 5 3 E 1016,0 0,0
10.09.2019 12:00:00 25,4 7 4 N 1016,0 0,0
10.09.2019 11:00:00 22,5 6 3 NNE 1016,3 0,0
10.09.2019 10:00:00 22,2 9 5 NNE 1016,2 0,0
10.09.2019 09:00:00 20,8 4 2 NO 1016,0 0,0
10.09.2019 08:00:00 18,2 1 1 NO 1015,9 0,0
10.09.2019 07:00:00 14,6 - - - 1015,9 0,0
10.09.2019 06:00:00 13,7 8 4 OSO 1015,4 0,0
10.09.2019 05:00:00 13,4 4 2 SO 1015,5 0,0
10.09.2019 04:00:00 13,5 11 6 SO 1015,4 0,0
10.09.2019 03:00:00 14,1 8 4 SO 1015,1 0,0
10.09.2019 02:00:00 14,7 13 7 SO 1015,3 0,0
10.09.2019 01:00:00 14,8 17 9 SO 1015,4 0,0
10.09.2019 00:00:00 15,4 16 9 OSO 1015,0 0,0
09.09.2019 23:00:00 16,0 13 7 OSO 1014,8 0,0
09.09.2019 22:00:00 16,6 13 7 O 1014,8 0,0
09.09.2019 21:00:00 16,9 13 7 SO 1014,6 0,0

tt = Temperatura
ff = velocità del vento
dd = direzione del vento
ppp = reduced air pressure
rr = precipitazioni

Stazioni seguenti

WeatherPro
AMSI
MeteoEarth